Regional Weather Roundup
Issued by NWS

Home | Current Version | Previous Version | Text Only | Print | Product List | Glossary On
Versions: 1 2 3 4 5 6 7 8 9 10 11 12 13 14 15 16 17 18 19 20 21 22 23 24 25 26 27 28 29 30 31 32 33 34 35 36 37 38 39 40 41 42 43 44 45 46 47 48 49 50
000
ASUS43 KFSD 271910
RWRSD

WEATHER ROUNDUP FOR SOUTH DAKOTA
NATIONAL WEATHER SERVICE SIOUX FALLS SD
200 PM CDT THU AUG 27 2015

NOTE: "FAIR" INDICATES FEW OR NO CLOUDS BELOW 12,000 FEET WITH NO
SIGNIFICANT WEATHER AND/OR OBSTRUCTIONS TO VISIBILITY.


SDZ001>005-009-010-012>017-272000-
NORTHWEST AND NORTH CENTRAL SOUTH DAKOTA

CITY           SKY/WX    TMP DP  RH WIND       PRES   REMARKS
BUFFALO          N/A     83  63  50 SW7       29.92F
FAITH            N/A     71  60  68 SE7       30.00
MOBRIDGE       CLOUDY    76  68  76 S6        29.96S
$$

SDZ012>016-024>037-041>051-057-063-072>074-272000-
SOUTHWEST AND SOUTH CENTRAL SOUTH DAKOTA

CITY           SKY/WX    TMP DP  RH WIND       PRES   REMARKS
RAPID CTY ARPT CLOUDY    71  56  58 NW16      30.03F
PIERRE         CLOUDY    72  66  81 NE5       29.97S
CUSTER         CLOUDY    66  49  54 N8        30.17S
ELLSWORTH AFB  DRIZZLE   72  57  60 NW17      30.02F
PHILIP         LGT RAIN  70  63  78 N6        29.99S
PINE RIDGE     CLOUDY    75  58  55 N13       30.02R
WINNER         FAIR      85  65  51 E14       29.93F
$$

SDZ004>011-016>023-039-040-272000-
NORTHEAST SOUTH DAKOTA

CITY           SKY/WX    TMP DP  RH WIND       PRES   REMARKS
ABERDEEN       CLOUDY    79  68  69 NE3       29.95F
WATERTOWN      CLOUDY    71  65  81 S15       30.00R
BROOKINGS      CLOUDY    72  64  78 SE9       30.02F
SISSETON         N/A     77  66  68 VRB3      29.94F
$$

SDZ017-020-022-023-036>040-048>070-272000-
SOUTHEAST SOUTH DAKOTA

CITY           SKY/WX    TMP DP  RH WIND       PRES   REMARKS
SIOUX FALLS    CLOUDY    75  66  73 SE10      29.99F
HURON          CLOUDY    76  67  73 S10       29.96F
CHAMBERLAIN    MOSUNNY   80  67  64 E9        29.92F
MITCHELL       PTSUNNY   76  67  73 E9        29.96S
YANKTON        MOSUNNY   77  66  69 SE14      29.93F
$$

ABBREVIATIONS USED IN REMARKS
   TC - TEMPERATURE IN CELSIUS
  WCI - WIND CHILL INDEX
   HX - HEAT INDEX
  VSB - VISIBILITY




USA.gov is the U.S. government's official web portal to all federal, state and local government web resources and services.